Showing default

CTC-0, 62401

Orbit data source: Space-Track

CTC-0, 62401 is an American payload satellite in LEO that was launched on Sat, 21 Dec 2024 UTC via an FALCON 9 launch vehicle from the Air Force Western Test Range (AFWTR). Payloads include a variety of satellites, spacecraft, and rockets equipped with specific instruments for various scientific and technological missions. These include communications satellites like Starlink; space stations such as the ISS; scientific satellites like the Hubble; Earth observation satellites from companies like Planet Labs, Umbra, and HawkEye 360; GPS; miniature CubeSats for education and research; and military/defense satellites.

Loading next visibility...
CTC-0 details
Identifier
62401, 2024-247AA
Orbit
LEO
Last TLE update1 day ago
Origin
Flag of USSPCOIN (US)
ManufacturerEndurosat
MissionOperational Commercial Communications
Bus & MotorCUBESAT 8U, Unknown motor
Mass9.75 kg wet, 9.75 kg dry
Launch date (UTC)
2024-12-21 (2 months ago)
Launch vehicle
FALCON 9
Launch site
Air Force Western Test Range (AFWTR)
Object type
Payload
Rocket body
Debris
Shape & HBRBox, 0.05 m
Radar Cross Section0.004 m², Small (<0.1 m²)

Expand to show TLE details & history

TLE from 1 day ago
0 CTC-0
1 62401U 24247AA  25034.95175300  .00018804  00000-0  84322-3 0  9999
2 62401  44.9912 120.8704 0004773 252.6243 107.4116 15.20990080  6911
Epoch: 2025-02-03T22:50Z
Definitive object data (Epoch: 2025-02-03T22:50:31.459Z)
Latitude0.00003°
Longitude3.87532°
Altitude503.835 km
Speed7.613 km/s
True Right ascension08h 03m 28s
True Declination0° 00' 00"
Sunlit
Object was in full shadow at TLE epoch
Visualization TLE readout
Latitude45.02385°
Longitude81.32687°
Altitude509.756 km
Speed7.613 km/s
Apparent Right ascension17h 00m 53s
Apparent Declination8° 15' 32"
Sunlit
Object is in full shadow
Visualization observer readout
Local Sidereal Time08:46:52
Azimuth60.827° ENE
Elevation-19.075°
Doppler factor1
Orbital elements
Apogee altitude507.744 km
Perigee altitude501.174 km
Semi-major axis6,882.596 km
Eccentricity0.0004773
Inclination44.9912°
RAAN120.8704°
Arg. of periapsis252.6243°
True anomaly107.46378°
Mean anomaly107.4116°
Eccentric anomaly107.43769°
Mean motion3.80115 °/min
BSTAR0.00084322
Orbital period94.71 mins
Loading maneuver chart data...
Loading historical data...
Loading historical data...
Loading historical data...
Loading historical data...
Loading historical data...
Loading historical data...
Loading historical data...

CTC-0 Visibility forecast

Observer location: undefined°, undefined

Span
Click to sort rows by Start time (UTC) header in descending order
Start Az.
Max El. time (UTC)
Max El. Az.
Max El.
End time (UTC)
End Az.
6 mins2025-02-05 08:07:39.365Z207.079° SW2025-02-05 08:10:39.365Z148.189° SSE28.486°2025-02-05 08:13:39.365Z84.9° E
6 mins2025-02-05 09:47:39.365Z267.245° W2025-02-05 09:49:39.365Z325.105° NNW41.011°2025-02-05 09:53:39.365Z63.358° ENE
5 mins2025-02-05 11:27:39.365Z307.944° NW2025-02-05 11:29:39.365Z7.691° NNE31.314°2025-02-05 11:32:39.365Z67.171° ENE
6 mins2025-02-05 13:06:39.365Z301.299° NW2025-02-05 13:08:39.365Z340.768° N40.355°2025-02-05 13:12:39.365Z100.748° ESE
4 mins2025-02-05 14:46:39.365Z255.815° W2025-02-05 14:48:39.365Z199.87° SSW26.374°2025-02-05 14:50:39.365Z160.708° S
|